Location: Champignolles
(47.0543°N, 4.5663°E)
Time: 13:49:36
(UTC+00:00)

Cosmos 1356 - Visible Passes

Search period start: 20 April 2021 00:00
Search period end: 30 April 2021 00:00
Orbit: 439 x 441 km, 81.1° (Epoch: 20 April)

Date Brightness Start Highest point End Pass type
(mag) Time Alt. Az. Time Alt. Az. Time Alt. Az.
20 Apr 3.4 19:44:20 10° N 19:47:44 59° ENE 19:50:22 16° SSE visible
21 Apr 5.9 20:40:45 10° NW 20:43:19 20° W 20:45:52 10° SW visible
22 Apr 4.4 20:01:42 10° NNW 20:04:59 45° W 20:08:15 10° S visible
23 Apr 3.3 19:23:06 10° N 19:26:32 70° ENE 19:29:55 10° SSE visible
24 Apr 6.2 20:19:41 10° NW 20:22:01 17° W 20:24:21 10° SW visible
25 Apr 4.8 19:40:29 10° NNW 19:43:42 39° W 19:46:53 10° SSW visible
27 Apr 6.3 19:58:35 10° NW 20:00:40 15° W 20:02:44 10° SW visible
28 Apr 5.2 19:19:12 10° NNW 19:22:20 34° W 19:25:27 10° SSW visible
